Location: Unspecified
(0.0000°N, 0.0000°E)
Time: 04:04:53
(UTC+00:00)

N. Korean satellite - Pass Details

Date: 25 January 2021
Orbit: 451 x 502 km, 97.2° (Epoch: 07 March)

Event Time Altitude Azimuth Distance (km) Brightness Sun altitude
Rises 04:55:01 0° 16° (NNE) 2,445 10.1 -18.2°
Reaches altitude 10° 04:57:03 10° 19° (NNE) 1,575 9.1 -17.8°
Maximum altitude 05:00:23 64° 101° (E) 502 6.8 -17.0°
Drops below altitude 10° 05:03:45 10° 183° (S) 1,584 9.4 -16.2°
Sets 05:05:48 0° 186° (S) 2,463 10.3 -15.7°
